#timestamp,LO_Frequency,Hit,StdDev 
1628492415.7,286046994.9,Y
1628492435.6,286046996.5,P
1628492455.4,286046999.4,N
1628492475.2,286046999.0,N
1628492495.1,286046999.0,N
1628492496.0,286046999.0,N
1628492515.8,286046999.6,N
1628492535.7,286046996.6,Y
1628492555.5,286046999.3,P
1628492575.3,286046999.4,N
1628492595.2,286046996.5,P
1628492615.0,286046999.5,N
1628492615.9,286046999.5,N
1628492635.8,286046999.6,N
1628492655.6,286046996.5,Y
1628492675.4,286046998.3,P
1628492695.3,286046999.2,N
1628492715.1,286046999.5,N
1628492735.9,286046996.5,Y
1628492755.7,286046998.8,P
1628492775.5,286046998.9,P
1628492795.4,286046998.5,P
1628492815.2,286046998.2,Y
1628492835.0,286047001.1,P
1628492836.0,286047001.1,N
1628492855.8,286046998.2,N
1628492875.6,286046998.9,N
1628492895.5,286046998.9,N
1628492915.3,286046998.9,N
1628492935.1,286046998.3,N
1628492955.9,286046999.0,N
1628492975.7,286046999.4,N
1628492995.6,286046999.3,N
1628493015.4,286046998.8,N
1628493035.2,286046998.3,N
1628493055.1,286046999.1,N
1628493056.0,286046999.1,N
1628493075.8,286046999.5,N
1628493095.7,286046997.0,Y
1628493115.5,286046998.1,P
1628493135.3,286046998.6,N
1628493155.2,286046998.6,P
1628493175.0,286046998.5,Y
1628493175.9,286046998.5,P
1628493195.8,286047000.3,P
1628493215.6,286046999.7,N
1628493235.4,286047002.8,Y
1628493255.3,286047002.8,P
1628493275.1,286047002.2,N
1628493295.8,286047002.2,N
1628493315.7,286047002.4,N
1628493335.5,286047002.3,N
1628493355.4,286047001.6,N
1628493375.2,286047001.4,N
1628493395.0,286047002.0,N
1628493395.9,286047002.0,N
1628493415.8,286047002.1,N
1628493435.6,286047001.8,N
1628493455.5,286047002.0,N
1628493475.3,286047000.1,N
1628493495.1,286047002.7,N
1628493515.9,286047002.5,N
1628493535.7,286046999.8,N
1628493555.5,286047002.3,N
1628493575.4,286047002.7,N
1628493595.2,286047000.5,N
1628493615.1,286047002.4,N
1628493616.0,286047002.4,N
1628493635.8,286047002.3,N
1628493655.6,286047002.3,N
1628493675.5,286047002.8,N
1628493695.3,286047002.4,N
1628493715.2,286047000.2,N
1628493735.9,286047002.4,N
1628493755.7,286047002.4,N
1628493775.6,286047000.2,N
1628493795.4,286047000.2,N
1628493815.2,286046999.9,N
1628493835.1,286047000.0,N
1628493836.0,286047000.0,N
1628493855.8,286047000.6,N
1628493875.7,286047001.0,N
1628493895.5,286047000.7,N
1628493915.3,286047001.0,N
1628493935.2,286046998.1,N
1628493955.0,286047001.2,N
1628493955.9,286047001.2,N
1628493975.8,286047001.2,N
1628493995.6,286047001.2,N
1628494015.4,286046998.6,N
1628494035.3,286047000.7,N
1628494055.1,286046998.6,N
1628494075.8,286047001.0,N
1628494095.7,286046998.7,N
1628494115.5,286046998.8,N
1628494135.4,286046998.8,N
1628494155.2,286046998.1,N
1628494175.0,286046999.1,N
1628494175.9,286046999.1,N
1628494195.8,286046999.1,N
1628494215.6,286046998.9,N
1628494235.5,286046998.9,N
1628494255.3,286046998.8,N
1628494275.1,286046996.5,N
1628494295.9,286046996.7,N
1628494315.7,286046999.5,N
1628494335.5,286046999.5,N
1628494355.4,286046997.0,N
1628494375.2,286046997.9,N
1628494395.1,286046997.1,N
1628494396.0,286046997.1,N
1628494415.8,286046997.8,N
1628494435.6,286046997.7,N
1628494455.5,286046997.5,N
1628494475.3,286046995.5,Y
1628494495.2,286046997.8,P
1628494515.9,286046996.5,P
1628494535.7,286046996.9,P
1628494555.6,286046996.9,Y
1628494575.4,286046998.1,P
1628494595.3,286047001.0,P
1628494615.1,286047001.0,N
1628494616.0,286047001.0,N
1628494635.8,286047000.6,N
1628494655.7,286047000.6,N
1628494675.5,286047000.9,N
1628494695.3,286047001.1,N
1628494715.2,286046998.2,N
1628494735.0,286047001.0,N
1628494735.9,286047001.0,N
1628494755.8,286046999.0,N
1628494775.6,286046998.5,N
1628494795.4,286046998.1,N
1628494815.3,286046998.3,N
1628494835.1,286047001.1,N
1628494855.9,286047001.2,N
1628494875.7,286046998.1,N
1628494895.5,286046998.1,N
1628494915.4,286046998.5,N
1628494935.2,286046998.7,N
1628494955.0,286046998.5,N
1628494955.9,286046998.5,N
1628494975.8,286046998.1,N
1628494995.6,286046998.1,N
1628495015.5,286046998.9,N
1628495035.3,286047000.8,N
1628495055.1,286046998.4,N
1628495075.9,286046998.4,N
1628495095.7,286046998.2,N
1628495115.6,286046998.5,N
1628495135.4,286046998.5,N
1628495155.2,286046998.1,N
1628495175.1,286046998.2,N
1628495176.0,286046998.2,N
1628495195.8,286046998.5,N
1628495215.7,286046998.3,N
1628495235.5,286046998.8,N
1628495255.3,286046998.8,N
1628495275.2,286046998.3,N
1628495295.0,286046998.4,N
1628495295.9,286046998.4,N
1628495315.8,286046999.1,N
1628495335.6,286046998.7,N
1628495355.4,286046998.4,N
1628495375.3,286047001.1,N
1628495395.1,286047001.2,N
1628495415.8,286046998.9,N
1628495435.7,286046998.9,N
1628495455.5,286046998.3,N
1628495475.4,286046998.4,N
1628495495.2,286046998.8,N
1628495515.0,286046998.4,N
1628495515.9,286046998.4,N
1628495535.8,286046998.7,N
1628495555.6,286046998.9,N
1628495575.5,286046996.5,Y
1628495595.3,286046998.9,P
1628495615.1,286046998.5,P
1628495635.9,286046998.1,P
1628495655.7,286046998.6,Y
1628495675.6,286047000.0,P
1628495695.4,286047000.6,N
1628495715.2,286047000.5,N
1628495735.1,286047000.6,N
1628495736.0,286047000.6,N
1628495755.8,286047000.9,N
1628495775.6,286047001.2,N
1628495795.5,286047000.8,N
1628495815.3,286046998.7,N
1628495835.2,286047001.1,N
1628495855.9,286046998.1,N
1628495875.7,286046998.1,N
1628495895.6,286047001.1,N
1628495915.4,286047000.8,N
1628495935.3,286047001.2,N
1628495955.1,286047001.0,N
1628495956.0,286047001.0,N
1628495975.8,286046998.1,N
1628495995.7,286046998.3,N
